Regional Weather Roundup
Issued by NWS

Home | Current Version | Previous Version | Graphics & Text | Print | Product List | Glossary Off
Versions: 1 2 3 4 5 6 7 8 9 10 11 12 13 14 15 16 17 18 19 20 21 22 23 24 25 26 27 28 29 30 31 32 33 34 35 36 37 38 39 40 41 42 43 44 45 46 47 48 49 50

000
ASUS43 KMKX 302221
RWRWI

WISCONSIN REGIONAL WEATHER ROUNDUP
NATIONAL WEATHER SERVICE MILWAUKEE/SULLIVAN WI
500 PM CDT THU JUL 30 2015

NOTE: "FAIR" INDICATES FEW OR NO CLOUDS BELOW 12,000 FEET WITH NO
SIGNIFICANT WEATHER AND/OR OBSTRUCTIONS TO VISIBILITY.

WIZ001-002-006>008-014>016-023>028-302300-
NORTHWEST WISCONSIN

CITY           SKY/WX    TMP DP  RH WIND       PRES   REMARKS
SUPERIOR ARPT  SUNNY     82  55  40 NW15G23   29.91F HX  81
ASHLAND        MOSUNNY   82  54  37 W10G22    29.90F HX  81
HAYWARD        MOSUNNY   80  56  43 W13G21    29.96F HX  80
SIREN          MOSUNNY   82  49  32 NW20G25   29.98F HX  80
CUMBERLAND     MOSUNNY   79  54  41 W10G20    30.00S
RICE LAKE      MOSUNNY   79  56  45 W15G21    30.01S HX  80
CHETEK         MOSUNNY   81  59  46 W10G20    29.99F HX  81
LADYSMITH      PTSUNNY   80  56  43 W20G29    30.00S HX  80
EAU CLAIRE     MOSUNNY   83  56  39 W15G24    29.99F HX  82
MENOMONIE      MOSUNNY   84  54  35 W16       30.01S HX  83
NEW RICHMOND   MOSUNNY   82  52  36 W18G28    30.02S HX  81
OSCEOLA        SUNNY     81  52  37 W16G23    30.03F HX  80
$$

WIZ003>005-009-010-017-018-302300-
NORTH CENTRAL WISCONSIN

CITY           SKY/WX    TMP DP  RH WIND       PRES   REMARKS
MANITOWISH WTR MOSUNNY   68  60  75 CALM      29.95F
ARBOR VITAE    PTSUNNY   72  59  65 CALM      29.98F
WOODRUFF       PTSUNNY   72  59  65 CALM      29.98F
RHINELANDER    PTSUNNY   73  53  49 W10       29.99R
EAGLE RIVER    LGT RAIN  64  59  83 W6        29.97R
LAND O LAKES   PTSUNNY   69  58  68 W6        29.96F
PHILLIPS       MOSUNNY   68  62  79 CALM      29.97F
TOMAHAWK       HVY RAIN  58  56  93 N6        30.01R
MEDFORD        MOSUNNY   78  57  47 W12G24    29.98F
MERRILL        NOT AVBL
$$

WIZ029-030-035-036-043>047-302300-
CENTRAL WISCONSIN

CITY           SKY/WX    TMP DP  RH WIND       PRES   REMARKS
WAUSAU         CLOUDY    77  52  41 VRB6      29.96S
MOSINEE        MOSUNNY   81  54  39 W17G25    29.99S HX  80
MARSHFIELD     SUNNY     82  52  35 NW17G25   29.99F HX  81
STEVENS POINT  MOSUNNY   81  53  36 W15G23    29.98S HX  81
WAUPACA        MOSUNNY   87  49  27 W14G21    29.96S HX  84
WAUTOMA        MOSUNNY   88  51  27 W16G23    29.97F HX  85
WISC RAPIDS    SUNNY     85  50  29 W13       29.99F HX  83
CAMP DOUGLAS   SUNNY     83  56  38 W17G23    30.00F HX  82
$$

WIZ011>013-019>022-031-037>040-048>050-302300-
NORTHEAST WISCONSIN

CITY           SKY/WX    TMP DP  RH WIND       PRES   REMARKS
ANTIGO         MOSUNNY   75  54  46 W14G20    29.98R
SHAWANO        SUNNY     84  53  34 W13G23    29.94R HX  82
OCONTO         SUNNY     85  54  34 W10G21    29.90S HX  84
STURGEON BAY   SUNNY     82  54  36 W14       29.93R HX  81
GREEN BAY      MOSUNNY   84  60  44 NW13      29.93S HX  84
MANITOWOC      CLOUDY    85  51  31 MISG      29.93F HX  83
APPLETON       MOSUNNY   84  46  26 W21G26    29.95F HX  82
CLINTONVILLE   MOSUNNY   82  52  34 W12       29.94S HX  81
OSHKOSH        MOSUNNY   84  52  33 W8G21     29.95F HX  82
$$

WIZ032>034-041-042-053>061-302300-
SOUTHWEST WISCONSIN

CITY           SKY/WX    TMP DP  RH WIND       PRES   REMARKS
LA CROSSE      SUNNY     86  55  34 W15       30.02S HX  84
SPARTA         SUNNY     84  50  31 W13G21    30.02F HX  82
VIROQUA        SUNNY     82  53  36 W12       30.06S HX  81
BOSCOBEL       SUNNY     87  56  34 W13G24    30.03S HX  85
PRAIRIE DU CHI SUNNY     86  50  28 W16       30.03F HX  84
PLATTEVILLE    SUNNY     85  57  39 W13G18    30.05F HX  84
$$

WIZ056-057-062-063-064-067-068-302300-
SOUTH CENTRAL WISCONSIN

CITY           SKY/WX    TMP DP  RH WIND       PRES   REMARKS
REEDSBURG      SUNNY     85  55  34 W14G22    30.01S HX  84
BARABOO/DELLS  SUNNY     86  46  24 NW14G24   30.02S HX  83
LONE ROCK      SUNNY     87  56  34 NW13G23   30.02S HX  85
MINERAL POINT  SUNNY     86  46  25 W12G25    30.05S HX  83
MADISON        MOSUNNY   85  54  34 NW12G23   30.00F HX  83
MIDDLETON      SUNNY     87  47  25 W15G21    30.02S HX  84
WATERTOWN      SUNNY     84  56  37 W13G20    29.99S HX  83
MONROE         SUNNY     86  54  32 W18       30.04F HX  84
JANESVILLE     MOSUNNY   88  48  25 W16G22    30.01F HX  85
$$

WIZ051-052-058>065-066-070>072-302300-
SOUTHEAST WISCONSIN

CITY           SKY/WX    TMP DP  RH WIND       PRES   REMARKS
MILWAUKEE      MOSUNNY   87  49  26 W16G26    29.98F HX  84
WAUKESHA       MOSUNNY   84  50  30 W20G26    30.00F HX  82
MILWAUKEE/TIMM MOSUNNY   86  46  25 W16G23    29.98F HX  83
RACINE         MOSUNNY   87  51  28 W12G23    30.00F HX  85
BURLINGTON     SUNNY     84  52  32 W13G18    30.00F HX  82
KENOSHA        SUNNY     85  57  38 W10       30.00F HX  84
FOND DU LAC    MOSUNNY   84  53  34 W15G22    29.96F HX  82
SHEBOYGAN      MOSUNNY   85  54  34 W15G23    29.94F HX  83
WEST BEND      SUNNY     84  46  26 W16G26    29.97F HX  82
JUNEAU         SUNNY     82  54  38 W14G23    30.00S HX  81
$$

LSZ147-162-302300-
LAKE SUPERIOR

STATION/POSITION TIME  TEMP    WIND        PRES    WAVE
                       AIR SEA DIR/SP/G            HT/PER
                 (UTC) (F)     (DEG/KT/KT) (MB)    (FT/S)
W MID LAKE BUOY  2150   61 53  240/ 14/ 16 1010.5F   2/ 4
DEVILS ISLAND    2200   69     230/ 12/ 13 1011.7F
PORT WING        2140   78     250/ 14/ 20 1012.2F
SAXON HARBOR     2100   73                 1012.9F
$$

LMZ867-665-643>646-302300-
LAKE MICHIGAN

STATION/POSITION TIME  TEMP    WIND        PRES    WAVE
                       AIR SEA DIR/SP/G            HT/PER
                 (UTC) (F)     (DEG/KT/KT) (MB)    (FT/S)
CHAMBERS ISLAND  2100   77      CALM  /  9 1011.9F
S GREEN BAY BUOY 2200   73 69  280/  8/ 10 1014.1S
N MID LAKE BUOY  2150   72 69  280/  6/  6 1011.4F   2/ 5
NORTHPORT PIER   2100   78     310/ 11/ 14 1011.9S
SISTER BAY       2144   80     330/ 11/ 12   N/A
ALGOMA LAKESHORE 2112          260/ 11/ 15   N/A
KEWAUNEE LAKESHO 2100   84     300/  9/ 16 1012.7F
SHEBOYGAN LAKESH 2200   84     280/ 14/ 18 1013.6F
PORT WASHINGTON  2100   87     300/  9/ 14 1014.9F
ATWATER BUOY     2200   78 62  270/ 16/ 19 1016.2F
MILWAUKEE LAKESH 2200   85     290/ 13/ 19   N/A
KENOSHA   LAKESH 2200   85     290/ 19/ 25 1014.9S
$$

TC  - TEMPERATURE IN CELSIUS
VSB - VISIBILITY IN STATUTE MILES
WCI - WIND CHILL INDEX
HX  - HEAT INDEX



USA.gov is the U.S. government's official web portal to all federal, state and local government web resources and services.